Regional Weather Roundup
Issued by NWS

Home | Current Version | Previous Version | Graphics & Text | Print | Product List | Glossary On
Versions: 1 2 3 4 5 6 7 8 9 10 11 12 13 14 15 16 17 18 19 20 21 22 23 24 25 26 27
000
ASUS45 KBOI 241010
RWRID

IDAHO REGIONAL WEATHER ROUNDUP
NATIONAL WEATHER SERVICE BOISE ID
300 AM MST FRI FEB 24 2017

NOTE: "FAIR" INDICATES FEW OR NO CLOUDS BELOW 12000 FEET
WITH NO SIGNIFICANT WEATHER AND/OR OBSTRUCTIONS TO VISIBILITY

IDZ012-014-241100-
SOUTHWEST IDAHO


CITY           SKY/WX    TMP DP  RH WIND       PRES   REMARKS
BOISE          CLOUDY    28  22  78 NW12      30.01S WCI  18
CALDWELL       MOCLDY    28  20  71 W14       30.06R WCI  17
MOUNTAIN HOME  CLOUDY    28  21  74 NW17      30.00R WCI  16
$$

IDZ016-017-241100-
SOUTHCENTRAL IDAHO


CITY           SKY/WX    TMP DP  RH WIND       PRES   REMARKS
BURLEY         FLURRIES  26  16  65 W20G30    29.92R WCI  12
JEROME           N/A    N/A N/A N/A MISG      29.92R
TWIN FALLS     CLOUDY    20  13  74 SW18      29.93S WCI   5
$$

IDZ019>023-241100-
SOUTHEAST IDAHO


CITY           SKY/WX    TMP DP  RH WIND       PRES   REMARKS
IDAHO FALLS    CLOUDY    22  21  96 S18       29.85S FOG     WCI   7
POCATELLO      LGT SNOW  22  20  92 SW23      29.90R FOG     WCI   6
REXBURG        LGT SNOW  22  19  89 S15G24    29.85R FOG     WCI   9
$$

IDZ006-010-011-018-031-032-241100-
CENTRAL IDAHO MOUNTAINS


CITY           SKY/WX    TMP DP  RH WIND       PRES   REMARKS
MCCALL         CLOUDY    18   8  65 MISG      29.90R
HAILEY         LGT SNOW  21  21 100 SE7       29.82R VSB 1   WCI  13
STANLEY          N/A     15  11  83 N6        29.79R WCI   6
SALMON         CLOUDY    27  18  69 E5        29.88S WCI  21
CHALLIS        CLOUDY    22  15  75 NW7       29.82S WCI  13
$$

IDZ002-004-006-007-026-241100-
NORTHERN IDAHO


CITY           SKY/WX    TMP DP  RH WIND       PRES   REMARKS
LEWISTON       CLEAR     26  21  81 CALM      30.14R
LOWELL           N/A     31  28  89 CALM      30.14R
COEUR D`ALENE  CLEAR     20  17  88 CALM      30.08R
MULLAN PASS    CLOUDY    14  12  92 CALM      29.88S
$$




USA.gov is the U.S. government's official web portal to all federal, state and local government web resources and services.